Weather in Idrinskoye

Russia / Krasnoyarsk Krai     54°22′11″N   92°07′44″E
temp.,
°C
wind,
m/s
gust,
m/s
humid.,
%
clouds,
%
prec.,
mm/h
press.,
hPa
HPBL,
m
24 june, thu
thu2401:00+8ese219669 0.1 101311
04:00+7e11972 0.0 101210
07:00+10ese23916 0.0 1010227
10:00+14ese34769 0.0 1007713
13:00+18ese456271 0.0 10041027
16:00+20ese2354100 0.0 10031026
19:00+17wnw3577100 0.0 1003157
22:00+14w3682100 0.1 1004115
25 june, fri
fri2501:00+11nnw2797100 2.1 1006301
04:00+10sse1196100 0.0 100510
07:00+11wnw1197100 0.6 100567
10:00+11wsw1293100 2.2 1006255
13:00+13sw3485100 5.4 1008799
16:00+13wnw1283100 0.9 1008479
19:00+13wsw1288100 2.1 100963
22:00+10s239395 1.1 101037
26 june, sat
sat2601:00+8w410895 1.6 1013227
04:00+6s2290100 0.0 101411
07:00+8se229397 0.1 1015101
10:00+12ssw238284 0.2 1014738
13:00+15sw236648 0.7 10131221
16:00+17wnw115894 0.1 10121389
19:00+16ne117088 0.1 1011886
22:00+12nne1177100 0.0 101210
27 june, sun
sun2701:00+10n0085100 0.3 101310
04:00+9sse1191100 0.6 101410
07:00+12se11885 0.8 1015167
10:00+16sw22713 1.3 1014659
13:00+18w33595 1.4 10131483
16:00+19wnw23565 0.0 10121597
19:00+18s01675 0.0 1012884
22:00+12ssw11807 0.1 101310
28 june, mon
mon2801:00+11s118238 0.1 101310
04:00+10nnw008499 0.0 101310
07:00+12e118495 0.0 101378
10:00+16sse217593 0.1 1012515
13:00+18w01635 1.2 1010872
16:00+20se015562 0.0 10091519
19:00+19e1171100 0.0 1009438
22:00+13e11785 0.0 100811